Time,TemperatureF,DewpointF,PressureIn,WindDirection,WindDirectionDegrees,WindSpeedMPH,WindSpeedGustMPH,Humidity,HourlyPrecipIn,Conditions,Clouds,dailyrainin,SolarRadiationWatts/m^2,SoftwareType,DateUTC
2013-03-05 00:00:00,33.1,21.1,30.01,SSE,166,0.0,0.0,61,0.00,,,0.00,0,Wunderground v.1.15,2013-03-05 08:00:00,
2013-03-05 00:10:00,33.1,21.1,30.02,SSE,165,0.0,0.0,61,0.00,,,0.00,0,Wunderground v.1.15,2013-03-05 08:10:00,
2013-03-05 00:15:00,33.0,21.0,30.01,SSE,165,0.0,0.0,61,0.00,,,0.00,0,Wunderground v.1.15,2013-03-05 08:15:00,
2013-03-05 00:25:00,32.7,21.1,30.01,SSE,165,0.0,0.0,62,0.00,,,0.00,0,Wunderground v.1.15,2013-03-05 08:25:00,
2013-03-05 00:30:00,32.6,21.0,30.01,SSE,165,0.0,0.0,62,0.00,,,0.00,0,Wunderground v.1.15,2013-03-05 08:30:00,
2013-03-05 00:35:00,32.5,20.9,30.01,SSE,165,0.0,0.0,62,0.00,,,0.00,0,Wunderground v.1.15,2013-03-05 08:35:00,
2013-03-05 00:40:00,32.4,21.2,30.02,SSE,165,0.0,0.0,63,0.00,,,0.00,0,Wunderground v.1.15,2013-03-05 08:40:00,
2013-03-05 00:45:00,32.3,21.1,30.02,SSE,165,0.0,0.0,63,0.00,,,0.00,0,Wunderground v.1.15,2013-03-05 08:45:00,
2013-03-05 00:55:00,32.0,21.2,30.02,SSE,165,0.0,0.0,64,0.00,,,0.00,0,Wunderground v.1.15,2013-03-05 08:55:00,
2013-03-05 01:00:00,31.8,21.0,30.01,SSE,165,0.0,0.0,64,0.00,,,0.00,0,Wunderground v.1.15,2013-03-05 09:00:00,
2013-03-05 01:10:00,31.9,21.1,30.02,SSE,165,0.0,0.0,64,0.00,,,0.00,0,Wunderground v.1.15,2013-03-05 09:10:00,
2013-03-05 01:15:00,31.9,21.1,30.02,SSE,165,0.0,0.0,64,0.00,,,0.00,0,Wunderground v.1.15,2013-03-05 09:15:00,
2013-03-05 01:20:00,31.8,21.4,30.02,SSE,165,0.0,0.0,65,0.00,,,0.00,0,Wunderground v.1.15,2013-03-05 09:20:00,
2013-03-05 01:30:00,31.7,21.3,30.01,SSE,165,0.0,0.0,65,0.00,,,0.00,0,Wunderground v.1.15,2013-03-05 09:30:00,
2013-03-05 01:35:00,31.6,21.5,30.01,SSE,165,0.0,0.0,66,0.00,,,0.00,0,Wunderground v.1.15,2013-03-05 09:35:00,
2013-03-05 01:40:00,31.6,21.5,30.01,SSE,165,0.0,0.0,66,0.00,,,0.00,0,Wunderground v.1.15,2013-03-05 09:40:00,
2013-03-05 01:45:00,31.7,21.6,30.01,SSE,165,0.0,0.0,66,0.00,,,0.00,0,Wunderground v.1.15,2013-03-05 09:45:00,
2013-03-05 01:50:00,31.7,21.6,30.01,SSE,165,0.0,0.0,66,0.00,,,0.00,0,Wunderground v.1.15,2013-03-05 09:50:00,
2013-03-05 02:00:00,31.6,21.2,30.01,SSE,165,0.0,0.0,65,0.00,,,0.00,0,Wunderground v.1.15,2013-03-05 10:00:00,
2013-03-05 02:10:00,30.9,20.9,30.01,SSE,165,0.0,0.0,66,0.00,,,0.00,0,Wunderground v.1.15,2013-03-05 10:10:00,
2013-03-05 02:15:00,30.2,20.6,30.01,SSE,165,0.0,0.0,67,0.00,,,0.00,0,Wunderground v.1.15,2013-03-05 10:15:00,
2013-03-05 02:20:00,29.6,20.3,30.00,SSE,165,0.0,0.0,68,0.00,,,0.00,0,Wunderground v.1.15,2013-03-05 10:20:00,
2013-03-05 02:25:00,29.3,20.4,30.00,SSE,165,0.0,0.0,69,0.00,,,0.00,0,Wunderground v.1.15,2013-03-05 10:25:00,
2013-03-05 02:30:00,29.2,20.3,30.00,SSE,165,0.0,0.0,69,0.00,,,0.00,0,Wunderground v.1.15,2013-03-05 10:30:00,
2013-03-05 02:35:00,29.1,20.5,30.00,SSE,165,0.0,0.0,70,0.00,,,0.00,0,Wunderground v.1.15,2013-03-05 10:35:00,
2013-03-05 02:40:00,29.1,20.5,29.99,SSE,165,0.0,0.0,70,0.00,,,0.00,0,Wunderground v.1.15,2013-03-05 10:40:00,
2013-03-05 02:45:00,29.0,20.4,29.99,SSE,165,0.0,0.0,70,0.00,,,0.00,0,Wunderground v.1.15,2013-03-05 10:45:00,
2013-03-05 02:50:00,28.8,20.2,29.98,SSE,165,0.0,0.0,70,0.00,,,0.00,0,Wunderground v.1.15,2013-03-05 10:50:00,
2013-03-05 02:55:00,28.4,20.2,29.98,SSE,165,0.0,0.0,71,0.00,,,0.00,0,Wunderground v.1.15,2013-03-05 10:55:00,
2013-03-05 03:00:00,28.2,20.0,29.98,SSE,165,0.0,0.0,71,0.00,,,0.00,0,Wunderground v.1.15,2013-03-05 11:00:00,
2013-03-05 03:10:00,27.6,19.8,29.98,SSE,165,0.0,0.0,72,0.00,,,0.00,0,Wunderground v.1.15,2013-03-05 11:10:00,
2013-03-05 03:15:00,27.3,19.8,29.97,SSE,165,0.0,0.0,73,0.00,,,0.00,0,Wunderground v.1.15,2013-03-05 11:15:00,
2013-03-05 03:20:00,27.1,19.6,29.97,SSE,165,0.0,0.0,73,0.00,,,0.00,0,Wunderground v.1.15,2013-03-05 11:20:00,
2013-03-05 03:25:00,26.9,19.7,29.97,SSE,165,0.0,0.0,74,0.00,,,0.00,0,Wunderground v.1.15,2013-03-05 11:25:00,
2013-03-05 03:30:00,26.8,19.6,29.97,SSE,165,0.0,0.0,74,0.00,,,0.00,0,Wunderground v.1.15,2013-03-05 11:30:00,
2013-03-05 03:40:00,26.7,19.8,29.98,SSE,165,0.0,0.0,75,0.00,,,0.00,0,Wunderground v.1.15,2013-03-05 11:40:00,
2013-03-05 03:45:00,26.7,19.8,29.98,SSE,165,0.0,0.0,75,0.00,,,0.00,0,Wunderground v.1.15,2013-03-05 11:45:00,
2013-03-05 03:50:00,26.7,19.5,29.97,SSE,165,0.0,0.0,74,0.00,,,0.00,0,Wunderground v.1.15,2013-03-05 11:50:00,
2013-03-05 03:55:00,26.9,19.7,29.97,SSE,165,0.0,0.0,74,0.00,,,0.00,0,Wunderground v.1.15,2013-03-05 11:55:00,
2013-03-05 04:00:00,26.9,20.0,29.97,SSE,165,0.0,0.0,75,0.00,,,0.00,0,Wunderground v.1.15,2013-03-05 12:00:00,
2013-03-05 04:10:00,26.7,19.8,29.97,SSE,165,0.0,0.0,75,0.00,,,0.00,0,Wunderground v.1.15,2013-03-05 12:10:00,
2013-03-05 04:15:00,26.8,19.9,29.97,SSE,165,0.0,0.0,75,0.00,,,0.00,0,Wunderground v.1.15,2013-03-05 12:15:00,
2013-03-05 04:20:00,26.8,19.9,29.97,SSE,165,0.0,0.0,75,0.00,,,0.00,0,Wunderground v.1.15,2013-03-05 12:20:00,
2013-03-05 04:25:00,26.8,19.9,29.97,SSE,165,0.0,0.0,75,0.00,,,0.00,0,Wunderground v.1.15,2013-03-05 12:25:00,
2013-03-05 04:30:00,26.9,20.0,29.97,SSE,165,0.0,0.0,75,0.00,,,0.00,0,Wunderground v.1.15,2013-03-05 12:30:00,
2013-03-05 04:35:00,26.9,20.0,29.97,SSE,165,0.0,0.0,75,0.00,,,0.00,0,Wunderground v.1.15,2013-03-05 12:35:00,
2013-03-05 04:45:00,27.0,20.1,29.96,SSE,165,0.0,0.0,75,0.00,,,0.00,0,Wunderground v.1.15,2013-03-05 12:45:00,
2013-03-05 04:50:00,27.0,20.1,29.96,SSE,165,0.0,0.0,75,0.00,,,0.00,0,Wunderground v.1.15,2013-03-05 12:50:00,
2013-03-05 04:55:00,27.1,20.2,29.96,SSE,165,0.0,0.0,75,0.00,,,0.00,0,Wunderground v.1.15,2013-03-05 12:55:00,
2013-03-05 05:00:00,27.2,20.0,29.96,SSE,165,0.0,0.0,74,0.00,,,0.00,0,Wunderground v.1.15,2013-03-05 13:00:00,
2013-03-05 05:10:00,27.2,20.0,29.95,SSE,165,0.0,0.0,74,0.00,,,0.00,0,Wunderground v.1.15,2013-03-05 13:10:00,
2013-03-05 05:15:00,27.3,20.1,29.95,SSE,165,0.0,0.0,74,0.00,,,0.00,0,Wunderground v.1.15,2013-03-05 13:15:00,
2013-03-05 05:20:00,27.4,20.2,29.95,SSE,165,0.0,0.0,74,0.00,,,0.00,0,Wunderground v.1.15,2013-03-05 13:20:00,
2013-03-05 05:25:00,27.5,20.3,29.95,SSE,165,0.0,0.0,74,0.00,,,0.00,0,Wunderground v.1.15,2013-03-05 13:25:00,
2013-03-05 05:30:00,27.7,20.8,29.94,SSE,165,0.0,0.0,75,0.00,,,0.00,0,Wunderground v.1.15,2013-03-05 13:30:00,
2013-03-05 05:35:00,27.8,20.6,29.94,SSE,165,0.0,0.0,74,0.00,,,0.00,0,Wunderground v.1.15,2013-03-05 13:35:00,
2013-03-05 05:40:00,27.9,20.7,29.94,SSE,165,0.0,0.0,74,0.00,,,0.00,0,Wunderground v.1.15,2013-03-05 13:40:00,
2013-03-05 05:45:00,28.2,21.0,29.94,SSE,165,0.0,0.0,74,0.00,,,0.00,0,Wunderground v.1.15,2013-03-05 13:45:00,
2013-03-05 05:50:00,28.2,21.0,29.94,SSE,165,0.0,0.0,74,0.00,,,0.00,0,Wunderground v.1.15,2013-03-05 13:50:00,
2013-03-05 05:55:00,28.1,20.9,29.94,SSE,165,0.0,0.0,74,0.00,,,0.00,0,Wunderground v.1.15,2013-03-05 13:55:00,
2013-03-05 06:05:00,28.0,20.8,29.92,SSE,165,0.0,0.0,74,0.00,,,0.00,0,Wunderground v.1.15,2013-03-05 14:05:00,
2013-03-05 06:10:00,28.2,21.0,29.92,SSE,165,0.0,0.0,74,0.00,,,0.00,0,Wunderground v.1.15,2013-03-05 14:10:00,
2013-03-05 06:15:00,28.2,21.0,29.92,SSE,165,0.0,0.0,74,0.00,,,0.00,0,Wunderground v.1.15,2013-03-05 14:15:00,
2013-03-05 06:20:00,28.2,21.3,29.92,SSE,165,0.0,0.0,75,0.00,,,0.00,0,Wunderground v.1.15,2013-03-05 14:20:00,
2013-03-05 06:25:00,28.3,21.4,29.91,SSE,165,0.0,0.0,75,0.00,,,0.00,0,Wunderground v.1.15,2013-03-05 14:25:00,
2013-03-05 06:30:00,28.4,21.5,29.91,SSE,165,0.0,0.0,75,0.00,,,0.00,0,Wunderground v.1.15,2013-03-05 14:30:00,
2013-03-05 06:35:00,28.4,21.5,29.91,SSE,165,0.0,0.0,75,0.00,,,0.00,0,Wunderground v.1.15,2013-03-05 14:35:00,
2013-03-05 06:40:00,28.3,21.4,29.92,SSE,165,0.0,0.0,75,0.00,,,0.00,0,Wunderground v.1.15,2013-03-05 14:40:00,
2013-03-05 06:50:00,28.1,21.2,29.92,SSE,165,0.0,0.0,75,0.00,,,0.00,0,Wunderground v.1.15,2013-03-05 14:50:00,
2013-03-05 06:55:00,28.0,21.4,29.92,SSE,165,0.0,0.0,76,0.00,,,0.00,0,Wunderground v.1.15,2013-03-05 14:55:00,
2013-03-05 07:00:00,28.0,21.7,29.91,SSE,165,0.0,0.0,77,0.00,,,0.00,11,Wunderground v.1.15,2013-03-05 15:00:00,
2013-03-05 07:10:00,27.9,21.6,29.92,SSE,165,0.0,0.0,77,0.00,,,0.00,18,Wunderground v.1.15,2013-03-05 15:10:00,
2013-03-05 07:15:00,27.9,21.6,29.92,SSE,165,0.0,0.0,77,0.00,,,0.00,25,Wunderground v.1.15,2013-03-05 15:15:00,
2013-03-05 07:25:00,28.1,21.5,29.91,SSE,165,0.0,0.0,76,0.00,,,0.00,46,Wunderground v.1.15,2013-03-05 15:25:00,
2013-03-05 07:30:00,28.2,21.6,29.91,SSE,165,0.0,0.0,76,0.00,,,0.00,47,Wunderground v.1.15,2013-03-05 15:30:00,
2013-03-05 07:35:00,28.3,21.7,29.90,SSE,167,0.0,0.0,76,0.00,,,0.00,62,Wunderground v.1.15,2013-03-05 15:35:00,
2013-03-05 07:40:00,28.4,21.8,29.90,SSE,167,0.0,0.0,76,0.00,,,0.00,67,Wunderground v.1.15,2013-03-05 15:40:00,
2013-03-05 07:45:00,28.8,21.9,29.90,SSE,167,0.0,0.0,75,0.00,,,0.00,69,Wunderground v.1.15,2013-03-05 15:45:00,
2013-03-05 07:55:00,29.3,22.0,29.90,SSE,167,0.0,0.0,74,0.00,,,0.00,60,Wunderground v.1.15,2013-03-05 15:55:00,
2013-03-05 08:00:00,29.5,21.9,29.90,SSE,167,0.0,0.0,73,0.00,,,0.00,63,Wunderground v.1.15,2013-03-05 16:00:00,
2013-03-05 08:10:00,30.1,22.2,29.90,SSE,167,0.0,0.0,72,0.00,,,0.00,100,Wunderground v.1.15,2013-03-05 16:10:00,
2013-03-05 08:15:00,30.4,22.4,29.90,SSE,167,0.0,0.0,72,0.00,,,0.00,104,Wunderground v.1.15,2013-03-05 16:15:00,
2013-03-05 08:20:00,30.7,22.7,29.90,SSE,167,0.0,0.0,72,0.00,,,0.00,84,Wunderground v.1.15,2013-03-05 16:20:00,
2013-03-05 08:30:00,31.4,22.7,29.90,SSE,167,0.0,0.0,70,0.00,,,0.00,86,Wunderground v.1.15,2013-03-05 16:30:00,
2013-03-05 08:35:00,31.7,23.0,29.89,SSE,167,0.0,0.0,70,0.00,,,0.00,86,Wunderground v.1.15,2013-03-05 16:35:00,
2013-03-05 08:40:00,31.8,23.1,29.90,SSE,167,0.0,0.0,70,0.00,,,0.00,74,Wunderground v.1.15,2013-03-05 16:40:00,
2013-03-05 08:45:00,31.8,23.1,29.90,SSE,167,0.0,0.0,70,0.00,,,0.00,74,Wunderground v.1.15,2013-03-05 16:45:00,
2013-03-05 08:50:00,31.9,22.9,29.90,SSE,167,0.0,0.0,69,0.00,,,0.00,58,Wunderground v.1.15,2013-03-05 16:50:00,
2013-03-05 09:00:00,32.3,23.3,29.89,SSE,167,0.0,0.0,69,0.00,,,0.00,83,Wunderground v.1.15,2013-03-05 17:00:00,
2013-03-05 09:10:00,32.5,23.5,29.89,SSE,166,0.0,0.0,69,0.00,,,0.00,118,Wunderground v.1.15,2013-03-05 17:10:00,
2013-03-05 09:15:00,32.5,23.1,29.88,SSE,159,0.0,2.0,68,0.00,,,0.00,132,Wunderground v.1.15,2013-03-05 17:15:00,
2013-03-05 09:20:00,32.7,23.3,29.88,SSE,148,0.0,0.0,68,0.00,,,0.00,139,Wunderground v.1.15,2013-03-05 17:20:00,
2013-03-05 09:25:00,32.9,23.5,29.89,SE,146,0.0,0.0,68,0.00,,,0.00,148,Wunderground v.1.15,2013-03-05 17:25:00,
2013-03-05 09:35:00,32.9,23.1,29.88,East,98,1.0,1.0,67,0.00,,,0.00,216,Wunderground v.1.15,2013-03-05 17:35:00,
2013-03-05 09:40:00,33.1,23.7,29.88,East,101,1.0,1.0,68,0.00,,,0.00,209,Wunderground v.1.15,2013-03-05 17:40:00,
2013-03-05 09:45:00,33.3,23.5,29.88,ESE,112,0.0,4.0,67,0.00,,,0.00,193,Wunderground v.1.15,2013-03-05 17:45:00,
2013-03-05 09:50:00,33.2,23.1,29.88,ESE,110,1.0,1.0,66,0.00,,,0.00,213,Wunderground v.1.15,2013-03-05 17:50:00,
2013-03-05 09:55:00,33.5,23.4,29.88,ENE,74,1.0,1.0,66,0.00,,,0.00,206,Wunderground v.1.15,2013-03-05 17:55:00,
2013-03-05 10:00:00,33.7,23.5,29.88,East,79,1.0,2.0,66,0.00,,,0.00,176,Wunderground v.1.15,2013-03-05 18:00:00,
2013-03-05 10:10:00,33.4,23.3,29.88,East,84,2.0,3.0,66,0.00,,,0.00,132,Wunderground v.1.15,2013-03-05 18:10:00,
2013-03-05 10:15:00,33.5,23.4,29.88,ESE,105,1.0,3.0,66,0.00,,,0.00,158,Wunderground v.1.15,2013-03-05 18:15:00,
2013-03-05 10:20:00,33.7,23.5,29.88,ESE,114,1.0,1.0,66,0.00,,,0.00,137,Wunderground v.1.15,2013-03-05 18:20:00,
2013-03-05 10:25:00,33.8,23.6,29.88,SSE,153,1.0,1.0,66,0.00,,,0.00,186,Wunderground v.1.15,2013-03-05 18:25:00,
2013-03-05 10:30:00,33.9,23.7,29.88,SE,146,1.0,1.0,66,0.00,,,0.00,221,Wunderground v.1.15,2013-03-05 18:30:00,
2013-03-05 10:40:00,34.8,24.2,29.88,SE,146,3.0,3.0,65,0.00,,,0.00,958,Wunderground v.1.15,2013-03-05 18:40:00,
2013-03-05 10:45:00,35.3,24.3,29.87,SE,134,4.0,6.0,64,0.00,,,0.00,364,Wunderground v.1.15,2013-03-05 18:45:00,
2013-03-05 10:50:00,35.5,24.1,29.87,ESE,117,4.0,6.0,63,0.00,,,0.00,253,Wunderground v.1.15,2013-03-05 18:50:00,
2013-03-05 10:55:00,35.4,24.0,29.87,ESE,113,5.0,6.0,63,0.00,,,0.00,236,Wunderground v.1.15,2013-03-05 18:55:00,
2013-03-05 11:00:00,35.4,23.7,29.87,SE,129,5.0,6.0,62,0.00,,,0.00,294,Wunderground v.1.15,2013-03-05 19:00:00,
2013-03-05 11:10:00,36.0,23.8,29.87,SSE,155,5.0,5.0,61,0.00,,,0.00,766,Wunderground v.1.15,2013-03-05 19:10:00,
2013-03-05 11:15:00,36.8,24.2,29.87,ESE,108,4.0,5.0,60,0.00,,,0.00,364,Wunderground v.1.15,2013-03-05 19:15:00,
2013-03-05 11:20:00,36.4,24.2,29.87,SSE,148,4.0,7.0,61,0.00,,,0.00,387,Wunderground v.1.15,2013-03-05 19:20:00,
2013-03-05 11:25:00,36.6,24.4,29.87,ESE,114,5.0,7.0,61,0.00,,,0.00,380,Wunderground v.1.15,2013-03-05 19:25:00,
2013-03-05 11:30:00,36.9,24.3,29.87,ESE,104,4.0,8.0,60,0.00,,,0.00,374,Wunderground v.1.15,2013-03-05 19:30:00,
2013-03-05 11:35:00,36.6,23.6,29.86,ESE,111,5.0,9.0,59,0.00,,,0.00,369,Wunderground v.1.15,2013-03-05 19:35:00,
2013-03-05 11:40:00,36.6,23.6,29.86,SE,133,7.0,7.0,59,0.00,,,0.00,374,Wunderground v.1.15,2013-03-05 19:40:00,
2013-03-05 11:45:00,36.8,23.8,29.86,SE,146,7.0,7.0,59,0.00,,,0.00,355,Wunderground v.1.15,2013-03-05 19:45:00,
2013-03-05 11:50:00,37.1,23.7,29.86,SE,140,7.0,7.0,58,0.00,,,0.00,350,Wunderground v.1.15,2013-03-05 19:50:00,
2013-03-05 11:55:00,37.3,24.3,29.86,ESE,118,6.0,12.0,59,0.00,,,0.00,390,Wunderground v.1.15,2013-03-05 19:55:00,
2013-03-05 12:00:00,37.6,24.1,29.86,SE,136,7.0,10.0,58,0.00,,,0.00,519,Wunderground v.1.15,2013-03-05 20:00:00,
2013-03-05 12:10:00,38.2,24.7,29.86,SE,142,6.0,7.0,58,0.00,,,0.00,490,Wunderground v.1.15,2013-03-05 20:10:00,
2013-03-05 12:15:00,38.3,24.4,29.86,SE,137,7.0,7.0,57,0.00,,,0.00,378,Wunderground v.1.15,2013-03-05 20:15:00,
2013-03-05 12:20:00,38.1,24.6,29.86,ESE,120,7.0,7.0,58,0.00,,,0.00,371,Wunderground v.1.15,2013-03-05 20:20:00,
2013-03-05 12:25:00,38.2,24.7,29.85,SE,138,7.0,12.0,58,0.00,,,0.00,343,Wunderground v.1.15,2013-03-05 20:25:00,
2013-03-05 12:30:00,38.4,24.9,29.85,SSE,148,7.0,7.0,58,0.00,,,0.00,494,Wunderground v.1.15,2013-03-05 20:30:00,
2013-03-05 12:35:00,38.8,24.9,29.85,SE,131,7.0,7.0,57,0.00,,,0.00,454,Wunderground v.1.15,2013-03-05 20:35:00,
2013-03-05 12:45:00,39.3,25.3,29.86,SE,134,6.0,7.0,57,0.00,,,0.00,295,Wunderground v.1.15,2013-03-05 20:45:00,
2013-03-05 12:50:00,39.1,25.1,29.85,SE,142,6.0,7.0,57,0.00,,,0.00,301,Wunderground v.1.15,2013-03-05 20:50:00,
2013-03-05 12:55:00,39.0,25.5,29.85,SSE,158,7.0,7.0,58,0.00,,,0.00,313,Wunderground v.1.15,2013-03-05 20:55:00,
2013-03-05 13:00:00,39.5,25.9,29.85,SE,137,7.0,7.0,58,0.00,,,0.00,304,Wunderground v.1.15,2013-03-05 21:00:00,
2013-03-05 13:10:00,40.1,26.1,29.85,SSE,147,5.0,5.0,57,0.00,,,0.00,397,Wunderground v.1.15,2013-03-05 21:10:00,
2013-03-05 13:20:00,40.4,25.9,29.85,SE,143,6.0,6.0,56,0.00,,,0.00,315,Wunderground v.1.15,2013-03-05 21:20:00,
2013-03-05 13:25:00,40.1,25.6,29.85,SSE,153,7.0,7.0,56,0.00,,,0.00,325,Wunderground v.1.15,2013-03-05 21:25:00,
2013-03-05 13:30:00,40.0,26.0,29.85,SE,135,8.0,8.0,57,0.00,,,0.00,322,Wunderground v.1.15,2013-03-05 21:30:00,
2013-03-05 13:35:00,40.1,26.1,29.84,SSE,153,6.0,8.0,57,0.00,,,0.00,295,Wunderground v.1.15,2013-03-05 21:35:00,
2013-03-05 13:40:00,40.1,26.1,29.84,SE,139,5.0,6.0,57,0.00,,,0.00,278,Wunderground v.1.15,2013-03-05 21:40:00,
2013-03-05 13:50:00,40.1,26.1,29.84,SE,141,6.0,7.0,57,0.00,,,0.00,292,Wunderground v.1.15,2013-03-05 21:50:00,
2013-03-05 13:55:00,40.3,25.8,29.84,South,171,6.0,7.0,56,0.00,,,0.00,274,Wunderground v.1.15,2013-03-05 21:55:00,
2013-03-05 14:00:00,40.4,25.9,29.84,SE,144,6.0,6.0,56,0.00,,,0.00,250,Wunderground v.1.15,2013-03-05 22:00:00,
2013-03-05 14:10:00,40.1,26.1,29.84,SE,127,6.0,8.0,57,0.00,,,0.00,251,Wunderground v.1.15,2013-03-05 22:10:00,
2013-03-05 14:15:00,40.1,26.1,29.84,SE,130,6.0,8.0,57,0.00,,,0.00,236,Wunderground v.1.15,2013-03-05 22:15:00,
2013-03-05 14:25:00,40.5,26.4,29.84,SE,146,4.0,8.0,57,0.00,,,0.00,251,Wunderground v.1.15,2013-03-05 22:25:00,
2013-03-05 14:30:00,40.4,26.4,29.84,SSE,161,5.0,5.0,57,0.00,,,0.00,230,Wunderground v.1.15,2013-03-05 22:30:00,
2013-03-05 14:35:00,40.6,26.5,29.84,ESE,118,5.0,6.0,57,0.00,,,0.00,209,Wunderground v.1.15,2013-03-05 22:35:00,
2013-03-05 14:40:00,40.5,26.4,29.84,SE,136,5.0,7.0,57,0.00,,,0.00,216,Wunderground v.1.15,2013-03-05 22:40:00,
2013-03-05 14:45:00,40.6,26.5,29.84,ESE,123,6.0,8.0,57,0.00,,,0.00,197,Wunderground v.1.15,2013-03-05 22:45:00,
2013-03-05 14:55:00,40.4,26.4,29.83,ESE,123,6.0,6.0,57,0.00,,,0.00,183,Wunderground v.1.15,2013-03-05 22:55:00,
2013-03-05 15:00:00,40.5,26.0,29.83,ESE,118,5.0,9.0,56,0.00,,,0.00,197,Wunderground v.1.15,2013-03-05 23:00:00,
2013-03-05 15:10:00,40.7,26.2,29.83,SE,125,4.0,7.0,56,0.00,,,0.00,174,Wunderground v.1.15,2013-03-05 23:10:00,
2013-03-05 15:15:00,40.5,26.0,29.83,SE,128,6.0,8.0,56,0.00,,,0.00,162,Wunderground v.1.15,2013-03-05 23:15:00,
2013-03-05 15:20:00,40.5,26.0,29.83,SE,126,7.0,11.0,56,0.00,,,0.00,179,Wunderground v.1.15,2013-03-05 23:20:00,
2013-03-05 15:25:00,40.5,26.0,29.83,SE,125,6.0,11.0,56,0.00,,,0.00,172,Wunderground v.1.15,2013-03-05 23:25:00,
2013-03-05 15:30:00,40.5,26.4,29.83,SE,140,5.0,5.0,57,0.00,,,0.00,153,Wunderground v.1.15,2013-03-05 23:30:00,
2013-03-05 15:35:00,40.3,26.3,29.83,ESE,122,5.0,5.0,57,0.00,,,0.00,130,Wunderground v.1.15,2013-03-05 23:35:00,
2013-03-05 15:40:00,40.2,26.2,29.83,SE,145,5.0,5.0,57,0.00,,,0.00,118,Wunderground v.1.15,2013-03-05 23:40:00,
2013-03-05 15:45:00,40.4,26.4,29.83,SE,126,4.0,5.0,57,0.00,,,0.00,128,Wunderground v.1.15,2013-03-05 23:45:00,
2013-03-05 15:50:00,40.3,26.3,29.83,SSE,153,4.0,4.0,57,0.00,,,0.00,135,Wunderground v.1.15,2013-03-05 23:50:00,
2013-03-05 16:00:00,40.4,26.8,29.82,SSE,153,4.0,4.0,58,0.00,,,0.00,111,Wunderground v.1.15,2013-03-06 00:00:00,
2013-03-05 16:10:00,40.4,26.8,29.83,SSE,153,3.0,3.0,58,0.00,,,0.00,81,Wunderground v.1.15,2013-03-06 00:10:00,
2013-03-05 16:15:00,40.3,26.7,29.83,SE,134,3.0,3.0,58,0.00,,,0.00,83,Wunderground v.1.15,2013-03-06 00:15:00,
2013-03-05 16:20:00,40.2,27.0,29.83,SE,146,3.0,4.0,59,0.00,,,0.00,84,Wunderground v.1.15,2013-03-06 00:20:00,
2013-03-05 16:25:00,40.2,27.0,29.82,SE,135,3.0,5.0,59,0.00,,,0.00,83,Wunderground v.1.15,2013-03-06 00:25:00,
2013-03-05 16:35:00,40.1,26.9,29.82,SE,132,4.0,5.0,59,0.00,,,0.00,81,Wunderground v.1.15,2013-03-06 00:35:00,
2013-03-05 16:40:00,40.0,27.2,29.82,SE,128,4.0,5.0,60,0.00,,,0.00,72,Wunderground v.1.15,2013-03-06 00:40:00,
2013-03-05 16:45:00,39.8,27.0,29.82,SE,126,4.0,5.0,60,0.00,,,0.00,56,Wunderground v.1.15,2013-03-06 00:45:00,
2013-03-05 16:50:00,39.8,27.0,29.82,SE,140,3.0,3.0,60,0.00,,,0.00,44,Wunderground v.1.15,2013-03-06 00:50:00,
2013-03-05 16:55:00,39.7,26.9,29.83,SE,136,1.0,3.0,60,0.00,,,0.00,32,Wunderground v.1.15,2013-03-06 00:55:00,
2013-03-05 17:00:00,39.7,26.9,29.83,SE,138,0.0,0.0,60,0.00,,,0.00,28,Wunderground v.1.15,2013-03-06 01:00:00,
2013-03-05 17:10:00,39.6,26.8,29.82,SE,133,0.0,0.0,60,0.00,,,0.00,26,Wunderground v.1.15,2013-03-06 01:10:00,
2013-03-05 17:15:00,39.5,26.8,29.82,SE,134,0.0,0.0,60,0.00,,,0.00,26,Wunderground v.1.15,2013-03-06 01:15:00,
2013-03-05 17:20:00,39.5,26.8,29.82,SSE,151,0.0,0.0,60,0.00,,,0.00,21,Wunderground v.1.15,2013-03-06 01:20:00,
2013-03-05 17:25:00,39.4,26.7,29.82,SE,140,0.0,0.0,60,0.00,,,0.00,19,Wunderground v.1.15,2013-03-06 01:25:00,
2013-03-05 17:30:00,39.2,26.9,29.82,SE,133,1.0,1.0,61,0.00,,,0.00,14,Wunderground v.1.15,2013-03-06 01:30:00,
2013-03-05 17:40:00,39.1,26.8,29.82,SE,142,1.0,1.0,61,0.00,,,0.00,7,Wunderground v.1.15,2013-03-06 01:40:00,
2013-03-05 17:45:00,39.1,26.8,29.82,SE,136,1.0,1.0,61,0.00,,,0.00,7,Wunderground v.1.15,2013-03-06 01:45:00,
2013-03-05 17:50:00,39.0,27.1,29.82,SE,126,2.0,2.0,62,0.00,,,0.00,5,Wunderground v.1.15,2013-03-06 01:50:00,
2013-03-05 17:55:00,38.9,27.0,29.82,SE,138,1.0,2.0,62,0.00,,,0.00,0,Wunderground v.1.15,2013-03-06 01:55:00,
2013-03-05 18:00:00,38.6,27.1,29.82,ESE,123,1.0,6.0,63,0.00,,,0.00,0,Wunderground v.1.15,2013-03-06 02:00:00,
2013-03-05 18:10:00,38.1,27.7,29.82,SE,143,2.0,2.0,66,0.00,,,0.00,0,Wunderground v.1.15,2013-03-06 02:10:00,
2013-03-05 18:15:00,37.8,28.2,29.82,SE,136,1.0,4.0,68,0.00,,,0.00,0,Wunderground v.1.15,2013-03-06 02:15:00,
2013-03-05 18:20:00,37.5,28.6,29.82,SE,135,1.0,1.0,70,0.00,,,0.00,0,Wunderground v.1.15,2013-03-06 02:20:00,
2013-03-05 18:25:00,37.3,28.8,29.82,SE,130,1.0,2.0,71,0.00,,,0.00,0,Wunderground v.1.15,2013-03-06 02:25:00,
2013-03-05 18:30:00,37.1,28.9,29.82,SE,130,0.0,4.0,72,0.00,,,0.00,0,Wunderground v.1.15,2013-03-06 02:30:00,
2013-03-05 18:35:00,37.0,29.1,29.82,SE,142,1.0,4.0,73,0.00,,,0.00,0,Wunderground v.1.15,2013-03-06 02:35:00,
2013-03-05 18:45:00,36.9,29.4,29.82,SSE,148,1.0,1.0,74,0.00,,,0.00,0,Wunderground v.1.15,2013-03-06 02:45:00,
2013-03-05 18:50:00,36.8,29.6,29.82,SSE,148,2.0,2.0,75,0.00,,,0.00,0,Wunderground v.1.15,2013-03-06 02:50:00,
2013-03-05 18:55:00,36.6,29.7,29.81,SE,130,2.0,2.0,76,0.00,,,0.00,0,Wunderground v.1.15,2013-03-06 02:55:00,
2013-03-05 19:00:00,36.5,29.7,29.82,SE,142,1.0,1.0,76,0.00,,,0.00,0,Wunderground v.1.15,2013-03-06 03:00:00,
2013-03-05 19:10:00,36.3,30.1,29.81,SSE,153,1.0,1.0,78,0.00,,,0.00,0,Wunderground v.1.15,2013-03-06 03:10:00,
2013-03-05 19:15:00,36.2,30.0,29.81,SE,144,1.0,1.0,78,0.00,,,0.00,0,Wunderground v.1.15,2013-03-06 03:15:00,
2013-03-05 19:20:00,36.0,30.1,29.81,SE,136,1.0,1.0,79,0.00,,,0.00,0,Wunderground v.1.15,2013-03-06 03:20:00,
2013-03-05 19:25:00,35.9,30.3,29.80,SE,128,1.0,1.0,80,0.00,,,0.00,0,Wunderground v.1.15,2013-03-06 03:25:00,
2013-03-05 19:30:00,35.9,30.3,29.80,ESE,119,0.0,5.0,80,0.00,,,0.00,0,Wunderground v.1.15,2013-03-06 03:30:00,
2013-03-05 19:35:00,35.8,30.5,29.80,ESE,119,3.0,8.0,81,0.00,,,0.00,0,Wunderground v.1.15,2013-03-06 03:35:00,
2013-03-05 19:45:00,35.7,30.4,29.80,SE,133,4.0,5.0,81,0.00,,,0.00,0,Wunderground v.1.15,2013-03-06 03:45:00,
2013-03-05 19:50:00,35.7,30.4,29.79,ESE,121,3.0,3.0,81,0.00,,,0.00,0,Wunderground v.1.15,2013-03-06 03:50:00,
2013-03-05 19:55:00,35.7,30.7,29.79,ESE,123,4.0,4.0,82,0.00,,,0.00,0,Wunderground v.1.15,2013-03-06 03:55:00,
2013-03-05 20:00:00,35.6,30.6,29.79,SE,138,4.0,4.0,82,0.00,,,0.00,0,Wunderground v.1.15,2013-03-06 04:00:00,
2013-03-05 20:10:00,35.5,30.8,29.79,SE,133,2.0,2.0,83,0.00,,,0.00,0,Wunderground v.1.15,2013-03-06 04:10:00,
2013-03-05 20:20:00,35.3,30.9,29.79,SE,142,3.0,3.0,84,0.00,,,0.00,0,Wunderground v.1.15,2013-03-06 04:20:00,
2013-03-05 20:25:00,35.3,30.9,29.79,SE,146,3.0,3.0,84,0.00,,,0.00,0,Wunderground v.1.15,2013-03-06 04:25:00,
2013-03-05 20:30:00,35.2,30.9,29.78,SE,144,2.0,2.0,84,0.00,,,0.00,0,Wunderground v.1.15,2013-03-06 04:30:00,
2013-03-05 20:35:00,35.0,30.9,29.78,SE,140,1.0,2.0,85,0.00,,,0.00,0,Wunderground v.1.15,2013-03-06 04:35:00,
2013-03-05 20:40:00,34.8,31.0,29.78,SE,142,2.0,2.0,86,0.00,,,0.00,0,Wunderground v.1.15,2013-03-06 04:40:00,
2013-03-05 20:50:00,34.7,30.9,29.78,SE,136,4.0,4.0,86,0.00,,,0.00,0,Wunderground v.1.15,2013-03-06 04:50:00,
2013-03-05 20:55:00,34.6,31.1,29.77,SE,136,4.0,4.0,87,0.00,,,0.00,0,Wunderground v.1.15,2013-03-06 04:55:00,
2013-03-05 21:00:00,34.5,31.0,29.77,SE,130,4.0,7.0,87,0.00,,,0.00,0,Wunderground v.1.15,2013-03-06 05:00:00,
2013-03-05 21:10:00,34.2,30.7,29.77,SE,144,3.0,4.0,87,0.00,,,0.00,0,Wunderground v.1.15,2013-03-06 05:10:00,
2013-03-05 21:15:00,34.1,30.6,29.77,SE,138,1.0,4.0,87,0.00,,,0.00,0,Wunderground v.1.15,2013-03-06 05:15:00,
2013-03-05 21:20:00,34.0,30.8,29.77,SE,133,1.0,1.0,88,0.00,,,0.00,0,Wunderground v.1.15,2013-03-06 05:20:00,
2013-03-05 21:25:00,33.9,30.7,29.77,ESE,119,3.0,3.0,88,0.00,,,0.00,0,Wunderground v.1.15,2013-03-06 05:25:00,
2013-03-05 21:30:00,33.9,30.7,29.77,ESE,118,2.0,2.0,88,0.00,,,0.00,0,Wunderground v.1.15,2013-03-06 05:30:00,
2013-03-05 21:35:00,33.9,30.7,29.77,SE,128,1.0,2.0,88,0.00,,,0.00,0,Wunderground v.1.15,2013-03-06 05:35:00,
2013-03-05 21:40:00,33.9,30.4,29.77,SE,132,1.0,1.0,87,0.00,,,0.00,0,Wunderground v.1.15,2013-03-06 05:40:00,
2013-03-05 21:45:00,33.9,30.7,29.77,SE,133,0.0,1.0,88,0.00,,,0.00,0,Wunderground v.1.15,2013-03-06 05:45:00,
2013-03-05 21:55:00,33.8,30.6,29.77,SE,136,2.0,2.0,88,0.00,,,0.00,0,Wunderground v.1.15,2013-03-06 05:55:00,
2013-03-05 22:00:00,33.8,30.6,29.77,SE,137,2.0,2.0,88,0.00,,,0.00,0,Wunderground v.1.15,2013-03-06 06:00:00,
2013-03-05 22:10:00,33.8,30.6,29.77,SE,137,2.0,4.0,88,0.00,,,0.00,0,Wunderground v.1.15,2013-03-06 06:10:00,
2013-03-05 22:15:00,33.8,30.6,29.76,SE,144,3.0,7.0,88,0.00,,,0.00,0,Wunderground v.1.15,2013-03-06 06:15:00,
2013-03-05 22:20:00,33.7,30.8,29.76,SE,135,4.0,4.0,89,0.00,,,0.00,0,Wunderground v.1.15,2013-03-06 06:20:00,
2013-03-05 22:30:00,33.6,30.7,29.75,SSE,149,3.0,3.0,89,0.00,,,0.00,0,Wunderground v.1.15,2013-03-06 06:30:00,
2013-03-05 22:35:00,33.6,30.7,29.76,SE,144,2.0,3.0,89,0.00,,,0.00,0,Wunderground v.1.15,2013-03-06 06:35:00,
2013-03-05 22:40:00,33.4,30.8,29.75,SE,139,2.0,4.0,90,0.00,,,0.00,0,Wunderground v.1.15,2013-03-06 06:40:00,
2013-03-05 22:45:00,33.3,30.7,29.75,SE,128,3.0,4.0,90,0.00,,,0.00,0,Wunderground v.1.15,2013-03-06 06:45:00,
2013-03-05 22:50:00,33.3,30.7,29.75,SE,136,3.0,6.0,90,0.00,,,0.00,0,Wunderground v.1.15,2013-03-06 06:50:00,
2013-03-05 23:00:00,33.1,30.8,29.74,SE,130,5.0,9.0,91,0.00,,,0.00,0,Wunderground v.1.15,2013-03-06 07:00:00,
2013-03-05 23:10:00,33.0,30.9,29.74,SE,131,8.0,11.0,92,0.00,,,0.00,0,Wunderground v.1.15,2013-03-06 07:10:00,
2013-03-05 23:15:00,32.9,30.8,29.73,SE,140,8.0,11.0,92,0.00,,,0.00,0,Wunderground v.1.15,2013-03-06 07:15:00,
2013-03-05 23:20:00,32.9,30.8,29.73,SE,144,7.0,7.0,92,0.00,,,0.00,0,Wunderground v.1.15,2013-03-06 07:20:00,
2013-03-05 23:25:00,33.0,30.9,29.73,SE,145,6.0,7.0,92,0.00,,,0.00,0,Wunderground v.1.15,2013-03-06 07:25:00,
2013-03-05 23:35:00,33.1,31.0,29.72,SE,126,6.0,9.0,92,0.00,,,0.00,0,Wunderground v.1.15,2013-03-06 07:35:00,
2013-03-05 23:40:00,33.2,31.1,29.72,SE,130,7.0,8.0,92,0.00,,,0.00,0,Wunderground v.1.15,2013-03-06 07:40:00,
2013-03-05 23:45:00,33.0,30.9,29.72,ESE,119,7.0,8.0,92,0.00,,,0.00,0,Wunderground v.1.15,2013-03-06 07:45:00,
2013-03-05 23:50:00,33.0,30.9,29.72,SE,128,6.0,15.0,92,0.00,,,0.00,0,Wunderground v.1.15,2013-03-06 07:50:00,
2013-03-05 23:55:00,32.9,30.8,29.71,SE,134,7.0,15.0,92,0.00,,,0.00,0,Wunderground v.1.15,2013-03-06 07:55:00,